Weather History for KSUS - February, 2013

Change the Weather History Date:

Thursday, February 28, 2013

  Actual Average (KSTL) Record (KSTL)
Temperature  
Mean Temperature 34 °F 40 °F  
Max Temperature 35 °F 50 °F 80 °F (1972)
Min Temperature 30 °F 31 °F 4 °F (1890)
Degree Days  
Heating Degree Days 32 25  
Month to date heating degree days 805  
Since 1 July heating degree days 3598  
Cooling Degree Days 0 0  
Month to date cooling degree days 0  
Year to date cooling degree days 0  
Moisture  
Dew Point 27 °F    
Average Humidity 80    
Maximum Humidity 89    
Minimum Humidity 70    
Precipitation  
Precipitation 0.00 in 0.08 in 1.35 in (1900)
Month to date precipitation 2.24  
Year to date precipitation 4.64  
Snow  
Snow 0.00 in 0.10 in 5.40 in (1922)
Month to date snowfall 4.3  
Since 1 July snowfall 15.0  
Snow Depth -    
Sea Level Pressure  
Sea Level Pressure 30.06 in    
Wind  
Wind Speed 10 mph (WNW)    
Max Wind Speed 16 mph    
Max Gust Speed 21 mph    
Visibility 8 miles    
Events Snow    
T = Trace of Precipitation, MM = Missing Value Source: NWS Daily Summary

Daily Weather History Graph

Daily Weather History Graph

Search for Another Location

Airport or City:

Trip Planner

Search our weather history database for the weather conditions in past years. The results will help you decide how hot, cold, wet, or windy it might be!

Date:

Astronomy

Feb. 28, 2013 Rise Set
Actual Time 6:35 AM CST 5:54 PM CST
Civil Twilight 6:09 AM CST 6:21 PM CST
Nautical Twilight 5:38 AM CST 6:52 PM CST
Astronomical Twilight 5:07 AM CST 7:23 PM CST
Moon 9:19 PM CST (2/28) 7:48 AM CST (2/28)
Length of Visible Light 12h 12m
Length of Day
11h 18m
Waning Gibbous, 90% of the Moon is Illuminated
Feb 28
Waning Gibbous
Mar 4
Last Quarter
Mar 11
New
Mar 19
First Quarter
Mar 27
Full

Hourly Weather History & Observations

Time (CST) Temp. Windchill Dew Point Humidity Pressure Visibility Wind Dir Wind Speed Gust Speed Precip Events Conditions
12:54 AM 32.0 °F 23.6 °F 26.6 °F 80% 29.91 in 9.0 mi West 10.4 mph - N/A   Overcast
1:54 AM 32.0 °F 23.6 °F 26.1 °F 79% 29.93 in 10.0 mi West 10.4 mph - N/A   Overcast
2:54 AM 32.0 °F 22.5 °F 26.1 °F 79% 29.93 in 10.0 mi West 12.7 mph - N/A   Overcast
3:07 AM 32.0 °F 23.6 °F 26.6 °F 80% 29.91 in 10.0 mi West 10.4 mph - N/A   Overcast
3:54 AM 32.0 °F 24.2 °F 26.1 °F 79% 29.95 in 10.0 mi West 9.2 mph - N/A   Overcast
4:54 AM 32.0 °F 24.8 °F 26.1 °F 79% 29.97 in 10.0 mi WNW 8.1 mph - N/A   Overcast
5:54 AM 32.0 °F 24.8 °F 26.6 °F 80% 29.96 in 10.0 mi WNW 8.1 mph - N/A   Overcast
6:54 AM 32.0 °F 22.5 °F 27.0 °F 82% 30.00 in 8.0 mi West 12.7 mph - N/A   Overcast
7:54 AM 33.1 °F 24.9 °F 27.0 °F 78% 30.03 in 9.0 mi West 10.4 mph - N/A   Overcast
8:54 AM 33.1 °F 24.9 °F 28.0 °F 82% 30.04 in 8.0 mi WNW 10.4 mph 20.7 mph N/A   Overcast
9:54 AM 34.0 °F 24.2 °F 27.0 °F 75% 30.06 in 9.0 mi WNW 15.0 mph 19.6 mph N/A   Overcast
10:34 AM 33.8 °F 23.9 °F 26.6 °F 75% 30.04 in 10.0 mi WNW 15.0 mph - N/A   Overcast
10:54 AM 34.0 °F 23.8 °F 27.0 °F 75% 30.07 in 10.0 mi WNW 16.1 mph 20.7 mph N/A   Overcast
11:54 AM 33.1 °F 23.0 °F 26.1 °F 75% 30.08 in 9.0 mi West 15.0 mph - N/A   Overcast
12:54 PM 34.0 °F 25.0 °F 27.0 °F 75% 30.08 in 9.0 mi WNW 12.7 mph - N/A   Overcast
1:54 PM 34.0 °F 25.5 °F 26.1 °F 73% 30.08 in 10.0 mi West 11.5 mph - N/A   Overcast
2:54 PM 34.0 °F 26.0 °F 26.1 °F 73% 30.09 in 10.0 mi WNW 10.4 mph - N/A   Overcast
3:54 PM 35.1 °F 27.9 °F 26.1 °F 70% 30.10 in 10.0 mi West 9.2 mph - N/A   Overcast
4:54 PM 35.1 °F 27.9 °F 26.1 °F 70% 30.11 in 10.0 mi WNW 9.2 mph - N/A   Overcast
5:54 PM 34.0 °F 28.8 °F 27.0 °F 75% 30.12 in 8.0 mi WNW 5.8 mph - 0.00 in Snow Light Snow
6:54 PM 33.1 °F 27.7 °F 28.0 °F 82% 30.13 in 5.0 mi WNW 5.8 mph - 0.00 in Snow Light Snow
7:54 PM 32.0 °F 27.5 °F 28.9 °F 88% 30.14 in 4.0 mi West 4.6 mph - 0.00 in Snow Light Snow
8:07 PM 32.0 °F 27.5 °F 28.4 °F 87% 30.11 in 3.0 mi West 4.6 mph - 0.00 in Snow Light Snow
8:14 PM 32.0 °F 27.5 °F 28.4 °F 87% 30.11 in 3.0 mi West 4.6 mph - 0.00 in Snow Light Snow
8:26 PM 32.0 °F 27.5 °F 28.4 °F 87% 30.11 in 3.0 mi West 4.6 mph - 0.00 in Snow Light Snow
8:54 PM 32.0 °F 26.4 °F 28.9 °F 88% 30.14 in 4.0 mi West 5.8 mph - 0.00 in Snow Light Snow
9:54 PM 32.0 °F 27.5 °F 28.9 °F 88% 30.14 in 3.0 mi West 4.6 mph - 0.00 in Snow Light Snow
10:54 PM 32.0 °F 25.6 °F 28.0 °F 85% 30.13 in 4.0 mi WNW 6.9 mph - 0.00 in Snow Light Snow
11:54 PM 30.9 °F 24.3 °F 28.0 °F 89% 30.13 in 3.0 mi NW 6.9 mph - 0.00 in Snow Light Snow